Weather History for Kake, AK

Change the Weather History Date:

Sunday, December 9, 2012

  Actual Average Record
Temperature  
Mean Temperature 34 °F -  
Max Temperature 39 °F 36 °F 48 °F (2002)
Min Temperature 30 °F 30 °F 23 °F (2000)
Degree Days  
Heating Degree Days 30    
Moisture  
Dew Point 32 °F    
Average Humidity 86    
Maximum Humidity 93    
Minimum Humidity 81    
Precipitation  
Precipitation 0.00 in - - ()
Sea Level Pressure  
Sea Level Pressure 29.92 in    
Wind  
Wind Speed 10 mph (ESE)    
Max Wind Speed 14 mph    
Max Gust Speed 21 mph    
Visibility 9 miles    
Events      
Averages and records for this station are not official NWS values.
T = Trace of Precipitation, MM = Missing Value Source: NWS Daily Summary

Daily Weather History Graph

Daily Weather History Graph

Search for Another Location

Airport:

Trip Planner

Search our weather history database for the weather conditions in past years. The results will help you decide how hot, cold, wet, or windy it might be!

Date:

Astronomy

Dec. 09, 2012 Rise Set
Actual Time 8:21 AM AKST 3:14 PM AKST
Civil Twilight 7:33 AM AKST 4:03 PM AKST
Nautical Twilight 6:42 AM AKST 4:53 PM AKST
Astronomical Twilight 5:56 AM AKST 5:40 PM AKST
Moon 3:25 AM AKST (12/9) 12:59 PM AKST (12/9)
Length of Visible Light 8h 30m
Length of Day
6h 53m
Waning Crescent, 17% of the Moon is Illuminated
Dec 9
Waning Crescent
Dec 12
New
Dec 19
First Quarter
Dec 28
Full
Jan 4
Last Quarter

Hourly Weather History & Observations

Time (AKST) Temp. Windchill Dew Point Humidity Pressure Visibility Wind Dir Wind Speed Gust Speed Precip Events Conditions
12:16 AM 30.2 °F 21.9 °F 28.4 °F 93% 29.84 in 1.0 mi SE 9.2 mph - N/A   Overcast
12:36 AM 30.2 °F 21.3 °F 28.4 °F 93% 29.83 in 1.5 mi SE 10.4 mph 17.3 mph N/A   Overcast
12:56 AM 30.2 °F 21.3 °F 28.4 °F 93% 29.82 in 3.0 mi ESE 10.4 mph 16.1 mph N/A   Overcast
1:16 AM 32.0 °F 23.6 °F 28.4 °F 87% 29.83 in 3.0 mi ESE 10.4 mph - N/A   Overcast
1:36 AM 32.0 °F 22.5 °F 28.4 °F 87% 29.83 in 3.0 mi ESE 12.7 mph 17.3 mph N/A   Overcast
1:56 AM 32.0 °F 23.0 °F 28.4 °F 87% 29.81 in 4.0 mi ESE 11.5 mph 20.7 mph N/A   Overcast
2:16 AM 32.0 °F 23.0 °F 28.4 °F 87% 29.81 in 4.0 mi ESE 11.5 mph 17.3 mph N/A   Overcast
2:36 AM 32.0 °F 24.8 °F 28.4 °F 87% 29.81 in 5.0 mi ESE 8.1 mph - N/A   Overcast
2:56 AM 33.8 °F 26.4 °F 28.4 °F 81% 29.82 in 3.0 mi ESE 9.2 mph - N/A   Overcast
3:16 AM 33.8 °F 26.4 °F 28.4 °F 81% 29.83 in 5.0 mi ESE 9.2 mph - N/A   Overcast
3:36 AM 33.8 °F 25.8 °F 28.4 °F 81% 29.81 in 5.0 mi ESE 10.4 mph - N/A   Overcast
3:56 AM 33.8 °F 24.8 °F 28.4 °F 81% 29.81 in 10.0 mi ESE 12.7 mph - N/A   Mostly Cloudy
4:16 AM 33.8 °F 24.8 °F 28.4 °F 81% 29.81 in 10.0 mi ESE 12.7 mph 19.6 mph N/A   Overcast
4:36 AM 33.8 °F 25.8 °F 30.2 °F 87% 29.82 in 10.0 mi ESE 10.4 mph 17.3 mph N/A   Overcast
4:56 AM 33.8 °F 25.8 °F 30.2 °F 87% 29.82 in 10.0 mi ESE 10.4 mph - N/A   Overcast
5:16 AM 33.8 °F 25.3 °F 30.2 °F 87% 29.83 in 10.0 mi ESE 11.5 mph 20.7 mph N/A   Overcast
5:36 AM 33.8 °F 26.4 °F 30.2 °F 87% 29.83 in 10.0 mi ESE 9.2 mph - N/A   Overcast
5:56 AM 33.8 °F 26.4 °F 30.2 °F 87% 29.84 in 10.0 mi ESE 9.2 mph - N/A   Overcast
6:16 AM 33.8 °F 26.4 °F 30.2 °F 87% 29.86 in 10.0 mi ESE 9.2 mph - N/A   Overcast
6:36 AM 33.8 °F 27.0 °F 30.2 °F 87% 29.87 in 10.0 mi East 8.1 mph 16.1 mph N/A   Overcast
6:56 AM 33.8 °F 24.3 °F 30.2 °F 87% 29.87 in 10.0 mi East 13.8 mph 19.6 mph N/A   Overcast
7:16 AM 33.8 °F 25.3 °F 30.2 °F 87% 29.88 in 10.0 mi East 11.5 mph - N/A   Mostly Cloudy
7:36 AM 33.8 °F 26.4 °F 30.2 °F 87% 29.88 in 10.0 mi East 9.2 mph - N/A   Mostly Cloudy
7:56 AM 35.6 °F 27.1 °F 32.0 °F 87% 29.89 in 10.0 mi East 12.7 mph 16.1 mph N/A   Mostly Cloudy
8:16 AM 33.8 °F 24.3 °F 30.2 °F 87% 29.89 in 10.0 mi East 13.8 mph - N/A   Overcast
8:36 AM 35.6 °F 28.0 °F 32.0 °F 87% 29.90 in 10.0 mi East 10.4 mph - N/A   Overcast
8:56 AM 35.6 °F 28.0 °F 32.0 °F 87% 29.90 in 10.0 mi ESE 10.4 mph - N/A   Mostly Cloudy
9:16 AM 35.6 °F 27.5 °F 32.0 °F 87% 29.91 in 10.0 mi East 11.5 mph 19.6 mph N/A   Mostly Cloudy
9:36 AM 37.4 °F 31.4 °F 32.0 °F 81% 29.92 in 10.0 mi ESE 8.1 mph - N/A   Overcast
9:56 AM 35.6 °F 29.2 °F 32.0 °F 87% 29.93 in 10.0 mi SSE 8.1 mph - N/A   Overcast
10:16 AM 35.6 °F 28.0 °F 32.0 °F 87% 29.94 in 10.0 mi SE 10.4 mph - N/A   Overcast
10:36 AM 37.4 °F 31.4 °F 32.0 °F 81% 29.93 in 10.0 mi ESE 8.1 mph - N/A   Overcast
10:56 AM 37.4 °F 30.8 °F 33.8 °F 87% 29.94 in 10.0 mi ESE 9.2 mph - N/A   Mostly Cloudy
11:16 AM 37.4 °F 31.4 °F 32.0 °F 81% 29.95 in 9.0 mi ESE 8.1 mph - N/A   Overcast
11:36 AM 37.4 °F 30.8 °F 32.0 °F 81% 29.94 in 9.0 mi ESE 9.2 mph - N/A   Overcast
11:56 AM 37.4 °F 31.4 °F 33.8 °F 87% 29.95 in 10.0 mi SSE 8.1 mph - N/A   Overcast
12:16 PM 37.4 °F 30.3 °F 33.8 °F 87% 29.94 in 9.0 mi SE 10.4 mph - N/A   Overcast
12:36 PM 37.4 °F 29.8 °F 33.8 °F 87% 29.93 in 8.0 mi East 11.5 mph - N/A   Overcast
12:56 PM 37.4 °F 30.3 °F 33.8 °F 87% 29.93 in 10.0 mi ESE 10.4 mph 16.1 mph N/A   Overcast
1:16 PM 37.4 °F 29.3 °F 33.8 °F 87% 29.93 in 10.0 mi East 12.7 mph - N/A   Overcast
1:36 PM 37.4 °F 30.8 °F 33.8 °F 87% 29.93 in 9.0 mi ESE 9.2 mph - N/A   Overcast
1:56 PM 37.4 °F 30.3 °F 33.8 °F 87% 29.93 in 10.0 mi East 10.4 mph - N/A   Overcast
2:16 PM 37.4 °F 30.3 °F 33.8 °F 87% 29.93 in 10.0 mi ESE 10.4 mph 17.3 mph N/A   Overcast
2:36 PM 37.4 °F 31.4 °F 35.6 °F 93% 29.93 in 7.0 mi SE 8.1 mph - N/A   Overcast
2:56 PM 37.4 °F 30.3 °F 35.6 °F 93% 29.93 in 10.0 mi SE 10.4 mph - N/A   Overcast
3:16 PM 37.4 °F 30.8 °F 35.6 °F 93% 29.93 in 10.0 mi SE 9.2 mph - N/A   Scattered Clouds
3:36 PM 37.4 °F 31.4 °F 33.8 °F 87% 29.94 in 10.0 mi SSE 8.1 mph - N/A   Clear
3:56 PM 39.2 °F 35.0 °F 35.6 °F 87% 29.95 in 10.0 mi South 5.8 mph - N/A   Clear
4:16 PM 39.2 °F 35.0 °F 33.8 °F 81% 29.95 in 10.0 mi SE 5.8 mph - N/A   Scattered Clouds
4:36 PM 37.4 °F 32.8 °F 33.8 °F 87% 29.95 in 10.0 mi ESE 5.8 mph - N/A   Mostly Cloudy
4:56 PM 37.4 °F 32.8 °F 33.8 °F 87% 29.95 in 10.0 mi SE 5.8 mph - N/A   Mostly Cloudy
5:16 PM 37.4 °F 30.8 °F 33.8 °F 87% 29.96 in 10.0 mi SE 9.2 mph - N/A   Mostly Cloudy
5:36 PM 37.4 °F 32.1 °F 33.8 °F 87% 29.96 in 10.0 mi SE 6.9 mph - N/A   Overcast
5:56 PM 37.4 °F 31.4 °F 33.8 °F 87% 29.97 in 10.0 mi SE 8.1 mph - N/A   Overcast
6:16 PM 39.2 °F 34.2 °F 33.8 °F 81% 29.97 in 10.0 mi ESE 6.9 mph - N/A   Overcast
6:36 PM 39.2 °F 35.0 °F 33.8 °F 81% 29.99 in 10.0 mi ESE 5.8 mph - N/A   Overcast
6:56 PM 37.4 °F 32.8 °F 33.8 °F 87% 29.98 in 10.0 mi SE 5.8 mph - N/A   Mostly Cloudy
7:16 PM 37.4 °F 30.8 °F 33.8 °F 87% 29.99 in 10.0 mi East 9.2 mph - N/A   Mostly Cloudy
7:36 PM 37.4 °F 30.3 °F 33.8 °F 87% 29.98 in 10.0 mi East 10.4 mph - N/A   Overcast
7:56 PM 37.4 °F 31.4 °F 33.8 °F 87% 29.99 in 10.0 mi East 8.1 mph - N/A   Mostly Cloudy
8:16 PM 37.4 °F 30.3 °F 33.8 °F 87% 30.00 in 10.0 mi East 10.4 mph - N/A   Overcast
8:36 PM 37.4 °F 30.8 °F 33.8 °F 87% 30.01 in 10.0 mi ESE 9.2 mph - N/A   Overcast
8:56 PM 37.4 °F 32.1 °F 33.8 °F 87% 30.02 in 10.0 mi East 6.9 mph - N/A   Overcast
9:16 PM 37.4 °F 30.8 °F 33.8 °F 87% 30.02 in 10.0 mi East 9.2 mph - N/A   Mostly Cloudy
9:36 PM 37.4 °F 31.4 °F 32.0 °F 81% 30.03 in 10.0 mi ESE 8.1 mph - N/A   Mostly Cloudy
9:56 PM 37.4 °F 32.8 °F 33.8 °F 87% 30.02 in 10.0 mi ESE 5.8 mph - N/A   Overcast
10:16 PM 37.4 °F 31.4 °F 33.8 °F 87% 30.03 in 10.0 mi ESE 8.1 mph - N/A   Overcast
10:36 PM 37.4 °F 30.3 °F 32.0 °F 81% 30.03 in 10.0 mi East 10.4 mph - N/A   Mostly Cloudy
10:56 PM 37.4 °F 30.3 °F 32.0 °F 81% 30.02 in 10.0 mi East 10.4 mph - N/A   Clear
11:16 PM 37.4 °F 30.8 °F 33.8 °F 87% 30.03 in 10.0 mi ESE 9.2 mph - N/A   Mostly Cloudy
11:56 PM 37.4 °F 32.1 °F 33.8 °F 87% 30.04 in 10.0 mi East 6.9 mph - N/A   Overcast